This is the latest recevied weather packets stored in our database for station/object NO3U. If no packets are shown the sender has not sent any weather packets the latest 10 day(s).
| Time | Temp. | Humidity | Pressure | Rain* | Wind** | Luminosity | Snow |
|---|---|---|---|---|---|---|---|
| 1777593021 | 7.78° C | 82% | 1014.4 hPa | 0 mm | - | 14 W/m² | - |
| 1777592715 | 7.78° C | 81% | 1014.6 hPa | 0 mm | - | 19 W/m² | - |
| 1777592412 | 8.33° C | 80% | 1014.5 hPa | 0 mm | - | 19 W/m² | - |
| 1777592106 | 8.89° C | 78% | 1014.8 hPa | 0 mm | - | 19 W/m² | - |
| 1777591805 | 8.89° C | 77% | 1014.6 hPa | 0 mm | - | 21 W/m² | - |
| 1777591500 | 9.44° C | 74% | 1014.3 hPa | 0 mm | - | 24 W/m² | - |
| 1777591196 | 10° C | 67% | 1014.5 hPa | 0 mm | - | 28 W/m² | - |
| 1777590890 | 10° C | 66% | 1014.5 hPa | 0 mm | - | 34 W/m² | - |
| 1777590587 | 10.56° C | 64% | 1014.6 hPa | 0 mm | - | 38 W/m² | - |
| 1777590283 | 10.56° C | 62% | 1014.5 hPa | 0 mm | - | 55 W/m² | - |
| 1777589981 | 10.56° C | 65% | 1014.6 hPa | 0 mm | - | 50 W/m² | - |
| 1777589677 | 10.56° C | 63% | 1014.5 hPa | 0 mm | - | 59 W/m² | - |
| 1777589375 | 10.56° C | 64% | 1014.5 hPa | 0 mm | - | 82 W/m² | - |
| 1777589072 | 10.56° C | 66% | 1014.6 hPa | 0 mm | - | 93 W/m² | - |
| 1777588768 | 10° C | 67% | 1014.5 hPa | 0 mm | - | 95 W/m² | - |
| 1777588463 | 10° C | 66% | 1014.6 hPa | 0 mm | - | 82 W/m² | - |
| 1777588159 | 10.56° C | 65% | 1014.5 hPa | 0 mm | - | 86 W/m² | - |
| 1777587855 | 10.56° C | 65% | 1014.7 hPa | 0 mm | - | 165 W/m² | - |
| 1777587550 | 10.56° C | 64% | 1014.6 hPa | 0 mm | - | 115 W/m² | - |
| 1777587246 | 10° C | 66% | 1014.5 hPa | 0 mm | - | 125 W/m² | - |
| 1777586941 | 10° C | 67% | 1014.6 hPa | 0 mm | - | 100 W/m² | - |
| 1777586637 | 10° C | 66% | 1014.5 hPa | 0 mm | - | 45 W/m² | - |
| 1777586333 | 10° C | 67% | 1014.4 hPa | 0 mm | - | 36 W/m² | - |
| 1777586031 | 10° C | 67% | 1014.2 hPa | 0 mm | - | 41 W/m² | - |
| 1777585730 | 10° C | 67% | 1014.4 hPa | 0 mm | - | 37 W/m² | - |
* Rain latest hour (hover to see other rain measurements)
** Current wind speed in m/s (hover to see current wind gust speed)